Soldotna, AK

4:33 PM AKDT on August 25, 2016 (GMT -0800)
Soldotna

Weather History for PASX - September, 2011

Change the Weather History Date:

Sunday, September 18, 2011

  Actual Average Record
Temperature  
Mean Temperature 43 °F -  
Max Temperature 53 °F 54 °F 66 °F (1969)
Min Temperature 33 °F 38 °F 24 °F (2000)
Degree Days  
Heating Degree Days 22    
Moisture  
Dew Point 38 °F    
Average Humidity 82    
Maximum Humidity 100    
Minimum Humidity 54    
Precipitation  
Precipitation 0.00 in - - ()
Sea Level Pressure  
Sea Level Pressure 29.46 in    
Wind  
Wind Speed 2 mph (East)    
Max Wind Speed 8 mph    
Max Gust Speed -    
Visibility 10 miles    
Events      
Averages and records for this station are not official NWS values.
T = Trace of Precipitation, MM = Missing Value Source: NWS Daily Summary

Daily Weather History Graph

Daily Weather History Graph

Search for Another Location

Airport or City:

Trip Planner

Search our weather history database for the weather conditions in past years. The results will help you decide how hot, cold, wet, or windy it might be!

Date:

Astronomy

Sep. 18, 2011 Rise Set
Actual Time 7:38 AM AKDT 8:16 PM AKDT
Civil Twilight 6:55 AM AKDT 8:58 PM AKDT
Nautical Twilight 6:03 AM AKDT 9:50 PM AKDT
Astronomical Twilight 5:05 AM AKDT 10:48 PM AKDT
Moon 9:41 PM AKDT (9/18) 3:44 PM AKDT (9/18)
Length of Visible Light 14h 03m
Length of Day
12h 37m
Waning Gibbous, 67% of the Moon is Illuminated
Sep 18
Waning Gibbous
Sep 20
Last Quarter
Sep 27
New
Oct 3
First Quarter
Oct 11
Full

Hourly Weather History & Observations

Time (AKDT) Temp. Windchill Dew Point Humidity Pressure Visibility Wind Dir Wind Speed Gust Speed Precip Events Conditions
12:16 AM 37.4 °F - 35.6 °F 93% 29.51 in 10.0 mi Calm Calm - N/A   Overcast
12:36 AM 37.4 °F - 37.4 °F 100% 29.51 in 10.0 mi Calm Calm - N/A   Overcast
12:56 AM 39.2 °F 35.9 °F 37.4 °F 93% 29.51 in 10.0 mi East 4.6 mph - N/A   Overcast
1:16 AM 37.4 °F - 37.4 °F 100% 29.51 in 10.0 mi Calm Calm - N/A   Overcast
1:36 AM 37.4 °F 34.9 °F 35.6 °F 93% 29.50 in 10.0 mi ENE 3.5 mph - N/A   Overcast
1:56 AM 37.4 °F - 35.6 °F 93% 29.50 in 10.0 mi Calm Calm - N/A   Overcast
2:16 AM 37.4 °F 34.9 °F 35.6 °F 93% 29.50 in 10.0 mi East 3.5 mph - N/A   Overcast
2:36 AM 39.2 °F 35.0 °F 37.4 °F 93% 29.50 in 10.0 mi East 5.8 mph - N/A   Overcast
2:56 AM 39.2 °F 35.0 °F 37.4 °F 93% 29.50 in 10.0 mi ESE 5.8 mph - N/A   Overcast
3:36 AM 37.4 °F 33.8 °F 35.6 °F 93% 29.50 in 10.0 mi East 4.6 mph - N/A   Overcast
3:56 AM 37.4 °F 32.8 °F 35.6 °F 93% 29.49 in 10.0 mi ESE 5.8 mph - N/A   Overcast
4:16 AM 37.4 °F 34.9 °F 35.6 °F 93% 29.49 in 10.0 mi East 3.5 mph - N/A   Mostly Cloudy
4:36 AM 37.4 °F 34.9 °F 35.6 °F 93% 29.49 in 10.0 mi East 3.5 mph - N/A   Mostly Cloudy
4:56 AM 37.4 °F 32.8 °F 35.6 °F 93% 29.49 in 10.0 mi ESE 5.8 mph - N/A   Overcast
5:16 AM 37.4 °F - 35.6 °F 93% 29.49 in 10.0 mi Calm Calm - N/A   Overcast
5:36 AM 35.6 °F 32.8 °F 33.8 °F 93% 29.49 in 10.0 mi East 3.5 mph - N/A   Mostly Cloudy
5:56 AM 35.6 °F 32.8 °F 33.8 °F 93% 29.49 in 10.0 mi East 3.5 mph - N/A   Partly Cloudy
6:16 AM 35.6 °F - 33.8 °F 93% 29.49 in 10.0 mi Calm Calm - N/A   Mostly Cloudy
6:36 AM 35.6 °F 32.8 °F 33.8 °F 93% 29.48 in 10.0 mi ENE 3.5 mph - N/A   Mostly Cloudy
6:56 AM 33.8 °F - 32.0 °F 93% 29.48 in 10.0 mi Calm Calm - N/A   Scattered Clouds
7:16 AM 33.8 °F - 30.2 °F 87% 29.48 in 10.0 mi Calm Calm - N/A   Partly Cloudy
7:36 AM 33.8 °F - 32.0 °F 93% 29.48 in 10.0 mi Calm Calm - N/A   Mostly Cloudy
7:56 AM 33.8 °F 28.6 °F 32.0 °F 93% 29.48 in 10.0 mi ESE 5.8 mph - N/A   Overcast
8:16 AM 35.6 °F 32.8 °F 33.8 °F 93% 29.47 in 10.0 mi East 3.5 mph - N/A   Mostly Cloudy
8:36 AM 33.8 °F 29.6 °F 33.8 °F 100% 29.47 in 10.0 mi East 4.6 mph - N/A   Mostly Cloudy
8:56 AM 35.6 °F 32.8 °F 33.8 °F 93% 29.47 in 10.0 mi ESE 3.5 mph - N/A   Mostly Cloudy
9:16 AM 35.6 °F - 33.8 °F 93% 29.47 in 10.0 mi Calm Calm - N/A   Mostly Cloudy
9:36 AM 37.4 °F 32.8 °F 35.6 °F 93% 29.47 in 10.0 mi East 5.8 mph - N/A   Clear
9:56 AM 37.4 °F 33.8 °F 35.6 °F 93% 29.47 in 10.0 mi East 4.6 mph - N/A   Mostly Cloudy
10:16 AM 39.2 °F 35.9 °F 37.4 °F 93% 29.47 in 10.0 mi East 4.6 mph - N/A   Mostly Cloudy
10:36 AM 42.8 °F 38.6 °F 37.4 °F 81% 29.47 in 10.0 mi East 6.9 mph - N/A   Scattered Clouds
10:56 AM 42.8 °F 41.1 °F 37.4 °F 81% 29.47 in 10.0 mi East 3.5 mph - N/A   Scattered Clouds
11:16 AM 44.6 °F 43.1 °F 39.2 °F 81% 29.46 in 10.0 mi East 3.5 mph - N/A   Mostly Cloudy
11:36 AM 44.6 °F - 39.2 °F 81% 29.46 in 10.0 mi Calm Calm - N/A   Overcast
11:56 AM 46.4 °F - 41.0 °F 81% 29.46 in 10.0 mi Calm Calm - N/A   Overcast
12:16 PM 48.2 °F - 41.0 °F 76% 29.45 in 10.0 mi Calm Calm - N/A   Overcast
12:36 PM 48.2 °F - 41.0 °F 76% 29.45 in 7.0 mi Calm Calm - N/A   Overcast
12:56 PM 50.0 °F - 41.0 °F 71% 29.45 in 10.0 mi Calm Calm - N/A   Overcast
1:16 PM 50.0 °F - 41.0 °F 71% 29.45 in 10.0 mi Calm Calm - N/A   Overcast
1:36 PM 51.8 °F - 39.2 °F 62% 29.45 in 10.0 mi Calm Calm - N/A   Overcast
1:56 PM 51.8 °F - 37.4 °F 58% 29.44 in 10.0 mi North 4.6 mph - N/A   Overcast
2:16 PM 53.6 °F - 37.4 °F 54% 29.44 in 10.0 mi Calm Calm - N/A   Overcast
2:36 PM 51.8 °F - 39.2 °F 62% 29.43 in 10.0 mi Calm Calm - N/A   Overcast
2:56 PM 53.6 °F - 39.2 °F 58% 29.43 in 10.0 mi NNE 5.8 mph - N/A   Mostly Cloudy
3:16 PM 53.6 °F - 37.4 °F 54% 29.42 in 10.0 mi Calm Calm - N/A   Partly Cloudy
3:36 PM 53.6 °F - 37.4 °F 54% 29.42 in 10.0 mi Calm Calm - N/A   Clear
3:56 PM 53.6 °F - 42.8 °F 67% 29.41 in 10.0 mi NNE 8.1 mph - N/A   Scattered Clouds
4:16 PM 53.6 °F - 42.8 °F 67% 29.41 in 10.0 mi North 5.8 mph - N/A   Overcast
4:36 PM 53.6 °F - 42.8 °F 67% 29.41 in 10.0 mi North 5.8 mph - N/A   Overcast
4:56 PM 53.6 °F - 41.0 °F 62% 29.40 in 10.0 mi Calm Calm - N/A   Overcast
5:16 PM 53.6 °F - 42.8 °F 67% 29.40 in 10.0 mi South 3.5 mph - N/A   Mostly Cloudy
5:36 PM 53.6 °F - 42.8 °F 67% 29.40 in 10.0 mi Calm Calm - N/A   Mostly Cloudy
5:56 PM 51.8 °F - 42.8 °F 71% 29.40 in 5.0 mi Calm Calm - N/A   Overcast
6:16 PM 51.8 °F - 42.8 °F 71% 29.40 in 10.0 mi Calm Calm - N/A   Overcast
6:36 PM 51.8 °F - 46.4 °F 82% 29.39 in 10.0 mi WNW 3.5 mph - N/A   Overcast
6:56 PM 51.8 °F - 42.8 °F 71% 29.39 in 10.0 mi WNW 4.6 mph - N/A   Overcast
7:16 PM 50.0 °F - 42.8 °F 76% 29.39 in 5.0 mi West 5.8 mph - N/A   Overcast
7:36 PM 50.0 °F - 42.8 °F 76% 29.39 in 10.0 mi West 8.1 mph - N/A   Mostly Cloudy
7:56 PM 48.2 °F - 42.8 °F 82% 29.39 in 10.0 mi NW 5.8 mph - N/A   Scattered Clouds
8:16 PM 48.2 °F - 42.8 °F 82% 29.39 in 10.0 mi NW 3.5 mph - N/A   Clear
8:36 PM 46.4 °F 45.2 °F 42.8 °F 87% 29.39 in 10.0 mi WNW 3.5 mph - N/A   Clear
8:56 PM 44.6 °F - 39.2 °F 81% 29.39 in 10.0 mi Calm Calm - N/A   Clear
9:16 PM 42.8 °F - 39.2 °F 87% 29.40 in 10.0 mi Calm Calm - N/A   Clear
9:36 PM 42.8 °F - 39.2 °F 87% 29.40 in 10.0 mi Calm Calm - N/A   Clear
9:56 PM 41.0 °F - 39.2 °F 93% 29.40 in 10.0 mi Calm Calm - N/A   Clear
10:16 PM 39.2 °F - 37.4 °F 93% 29.41 in 10.0 mi Calm Calm - N/A   Clear
10:36 PM 37.4 °F - 35.6 °F 93% 29.41 in 10.0 mi Calm Calm - N/A   Clear
10:56 PM 39.2 °F - 37.4 °F 93% 29.42 in 10.0 mi Calm Calm - N/A   Clear
11:16 PM 37.4 °F - 35.6 °F 93% 29.42 in 10.0 mi Calm Calm - N/A   Clear
11:36 PM 37.4 °F - 35.6 °F 93% 29.43 in 10.0 mi Calm Calm - N/A   Clear
11:56 PM 37.4 °F - 35.6 °F 93% 29.42 in 10.0 mi Calm Calm - N/A   Clear